Overview Statistics Trail Chart Weather Telemetry Raw packets
 

This is the latest recevied weather packets stored in our database for station/object K6POO-1. If no packets are shown the sender has not sent any weather packets the latest 10 day(s).

<< 107 108 109 110 111 112 113 >>
Time Temp. Humidity Pressure Rain* Wind** Luminosity Snow
1787874895 21.67° C 64% 1014.7 hPa 0 mm - 208 W/m² -
1787874590 22.78° C 61% 1014.7 hPa 0 mm - 207 W/m² -
1787874284 22.78° C 57% 1014.8 hPa 0 mm - 217 W/m² -
1787873978 23.33° C 59% 1014.8 hPa 0 mm - 239 W/m² -
1787873678 23.33° C 59% 1014.9 hPa 0 mm - 268 W/m² -
1787873373 23.33° C 59% 1014.7 hPa 0 mm - 312 W/m² -
1787873078 23.89° C 58% 1014.6 hPa 0 mm - 288 W/m² -
1787872767 23.89° C 57% 1014.7 hPa 0 mm - 265 W/m² -
1787872463 23.89° C 57% 1014.4 hPa 0 mm - 264 W/m² -
1787872158 23.89° C 57% 1014.3 hPa 0 mm - 284 W/m² -
1787871857 24.44° C 56% 1014.3 hPa 0 mm - 312 W/m² -
1787871552 24.44° C 57% 1014.2 hPa 0 mm - 371 W/m² -
1787871248 23.89° C 58% 1014.5 hPa 0 mm - 387 W/m² -
1787870943 23.89° C 60% 1014.6 hPa 0 mm - 470 W/m² -
1787870643 23.33° C 60% 1014.5 hPa 0 mm - 400 W/m² -
1787870337 23.33° C 62% 1014.6 hPa 0 mm - 481 W/m² -
1787870033 22.78° C 62% 1014.5 hPa 0 mm - 347 W/m² -
1787869731 23.33° C 61% 1014.8 hPa 0 mm - 353 W/m² -
1787869425 23.33° C 62% 1014.9 hPa 0 mm - 372 W/m² -
1787869120 23.89° C 59% 1014.9 hPa 0 mm - 313 W/m² -
1787868819 24.44° C 59% 1014.7 hPa 0 mm - 392 W/m² -
1787868518 23.89° C 60% 1014.8 hPa 0 mm - 432 W/m² -
1787868217 24.44° C 59% 1014.9 hPa 0 mm - 556 W/m² -
1787867912 24.44° C 59% 1015 hPa 0 mm - 617 W/m² -
1787867609 23.89° C 60% 1014.9 hPa 0 mm - 644 W/m² -

* Rain latest hour (hover to see other rain measurements)
** Current wind speed in m/s (hover to see current wind gust speed)